Wind_Speed
34 32 27 28 28 29 31 33 35 36 35 38 41 41 42 42 44 44 45 45 47 48 50 51 52 53 54 56 56 55 55 57 56 57 58 60 61 60 57 57 59 57 57
35 32 32 33 33 34 33 32 34 35 36 36 39 40 43 43 43 45 46 47 48 51 55 55 53 52 53 54 51 50 51 51 52 53 51 51 48 49 50 50 50 48 49
37 34 36 38 39 40 41 40 39 40 41 40 41 42 43 46 44 46 48 50 53 55 56 57 54 52 50 50 46 43 45 46 46 45 47 44 45 45 45 46 45 43 43
31 33 34 36 43 45 46 46 47 45 44 43 45 45 44 47 50 55 56 58 59 58 57 55 53 50 48 42 40 40 45 45 45 46 41 42 43 44 44 42 42 43 42
38 40 43 45 46 49 50 50 50 50 49 50 49 48 51 54 53 55 56 57 57 56 52 52 52 47 44 38 39 41 46 47 45 41 42 41 39 43 43 42 42 41 42
44 45 48 48 48 48 49 52 53 54 54 51 53 56 59 58 57 57 55 56 55 52 52 50 49 44 39 38 40 44 45 42 42 42 43 40 42 46 44 43 42 42 42
48 47 50 50 50 48 46 49 52 55 53 55 55 58 59 59 60 58 55 54 53 51 50 48 46 41 39 41 42 41 45 44 46 40 43 42 45 43 45 43 44 42 43
50 48 49 49 52 52 53 55 52 53 57 59 60 62 60 63 60 53 52 50 50 49 47 45 43 40 41 42 37 38 43 43 38 43 42 42 46 48 47 46 43 43 43
50 50 51 53 54 57 53 58 58 59 60 64 66 65 63 59 54 49 46 46 48 47 44 42 39 38 40 39 38 44 46 48 46 47 43 46 47 47 47 45 45 45 45
52 53 55 59 60 59 61 62 61 67 66 66 64 63 60 50 44 42 40 45 45 42 39 38 38 37 38 39 40 47 50 48 48 45 47 48 49 49 44 45 45 47 47
62 60 60 62 60 60 64 64 68 67 67 64 61 56 46 43 41 38 40 42 41 37 37 38 39 42 43 41 40 49 45 46 47 50 55 56 52 52 47 45 46 46 46
64 65 66 66 66 66 68 67 68 67 63 59 51 46 42 40 38 39 39 40 39 37 37 38 40 43 43 41 43 48 50 52 53 56 52 49 52 52 50 49 46 46 46
63 63 66 64 65 67 66 67 66 61 53 50 46 40 39 38 39 39 39 38 38 37 38 39 41 45 48 47 44 49 52 54 55 51 52 54 58 55 54 52 50 48 47
65 67 65 67 67 63 63 60 59 53 50 48 40 38 37 39 41 40 39 37 37 37 38 39 41 44 42 42 46 50 54 54 55 54 59 62 64 61 57 57 54 52 51
66 66 67 63 63 58 52 51 51 49 46 39 38 37 38 40 42 42 41 39 37 37 38 41 44 47 47 49 50 53 55 57 62 64 65 68 66 68 62 59 57 58 59
66 66 61 58 53 48 46 49 50 45 38 34 36 37 39 39 40 41 42 41 38 38 39 42 46 49 54 54 58 58 63 66 66 69 69 68 67 66 65 60 61 63 64
61 59 56 49 46 44 47 48 45 36 32 33 36 39 38 38 37 39 41 41 40 39 40 42 46 50 53 57 64 67 72 71 71 72 71 65 67 67 64 66 69 69 67
52 47 44 42 43 44 47 43 35 33 33 36 38 38 37 37 36 37 38 41 42 41 41 42 45 51 56 60 65 67 68 69 69 66 66 69 67 66 68 70 71 68 67
41 39 37 39 42 45 44 34 35 35 36 38 37 37 36 36 37 37 37 39 41 42 43 44 45 49 55 58 60 62 63 62 64 65 65 66 68 70 72 71 69 72 72
33 35 36 39 44 43 34 34 35 37 38 37 36 36 35 36 38 39 39 41 42 42 44 45 49 51 52 53 55 57 59 63 64 65 67 71 73 73 73 73 75 76 78
34 35 34 37 35 31 31 33 35 37 38 37 38 37 37 36 37 39 43 44 44 45 47 49 49 51 53 54 56 60 62 66 68 71 73 74 75 76 76 79 82 83 86
34 37 37 33 29 30 30 32 35 36 37 39 39 39 39 38 39 41 42 43 45 48 49 52 54 57 59 61 62 64 67 72 73 75 76 77 78 79 83 86 89 91 93
33 32 30 24 26 30 33 33 34 37 37 37 38 39 41 41 43 43 44 45 46 49 50 52 56 58 62 66 68 69 70 71 73 78 79 82 85 88 91 93 96 99 101
29 27 25 25 23 25 26 28 31 36 38 39 40 42 44 44 45 47 48 49 50 51 52 56 59 62 64 68 72 76 78 78 79 77 82 87 90 92 97 101 104 105 106
30 27 25 24 25 25 25 27 29 31 34 37 40 41 43 45 47 48 51 53 55 56 57 59 63 66 68 71 74 77 81 84 88 88 85 91 94 97 96 99 102 104 109
30 30 29 26 27 28 29 32 34 36 38 41 43 44 46 49 51 53 54 56 59 62 64 67 70 73 75 77 79 81 84 87 90 90 86 84 87 94 99 103 106 109 115
Wind_Direction
269 269 272 277 280 279 279 281 282 283 288 283 283 284 284 281 281 281 278 282 282 281 284 285 280 274 270 269 267 268 268 269 271 272 274 276 277 279 278 277 277 276 275
266 269 274 276 278 281 284 292 293 287 290 288 290 288 284 282 281 280 279 280 283 286 284 286 282 274 270 266 268 268 269 270 270 274 276 278 279 278 281 281 278 277 277
265 267 272 276 280 283 282 285 286 288 284 282 282 285 289 287 279 278 280 282 282 288 285 285 282 271 266 264 266 266 267 268 275 278 280 280 281 285 284 280 280 279 278
262 270 278 278 281 283 283 279 282 282 284 286 282 284 283 288 284 280 283 283 283 286 287 284 280 268 262 260 259 256 260 268 275 278 280 281 286 287 287 287 281 279 280
269 278 279 280 280 282 283 282 281 281 282 281 282 279 284 288 289 282 282 283 283 285 284 282 273 264 259 255 249 250 258 269 275 279 280 281 285 287 287 286 285 279 275
269 274 279 280 281 283 285 284 281 279 281 284 284 284 284 283 287 284 282 284 284 283 282 277 265 258 255 246 246 251 262 266 272 274 280 283 283 284 284 286 283 280 277
269 275 276 277 279 282 285 287 283 278 279 283 284 287 286 284 287 282 281 282 282 283 281 272 260 252 248 244 247 258 263 270 275 277 283 285 291 290 289 283 282 279 280
270 275 275 278 281 285 286 291 288 282 284 286 288 289 286 286 283 280 281 281 281 281 278 266 254 246 246 250 256 261 266 263 277 281 283 284 290 291 289 283 282 279 279
270 275 276 281 284 286 287 288 287 285 286 289 288 289 288 284 280 279 278 279 280 282 275 262 249 245 248 254 259 266 260 261 278 284 278 286 291 292 293 288 282 281 276
271 274 279 282 285 287 286 287 290 291 290 292 290 289 285 282 277 276 277 280 282 281 270 257 249 243 243 249 248 258 259 264 272 272 280 285 288 291 290 291 289 283 278
273 276 279 283 285 285 288 288 291 293 292 291 288 286 282 279 276 274 278 280 279 274 264 251 245 240 240 248 255 261 264 263 264 273 278 279 282 288 291 290 290 285 278
271 273 278 280 283 284 288 290 290 291 291 290 286 283 281 276 271 274 278 278 274 267 259 250 244 241 242 244 261 259 263 262 267 273 274 281 285 285 288 288 290 288 282
271 274 275 279 282 284 285 288 289 289 287 287 286 282 279 275 275 277 278 279 275 267 262 253 248 245 245 251 262 263 261 265 265 268 276 281 285 284 288 287 289 289 287
269 272 276 278 282 282 284 285 285 283 283 287 282 279 277 277 281 281 280 277 274 268 259 256 252 248 244 254 263 263 263 264 267 273 276 280 282 284 286 287 288 287 284
268 272 276 279 281 282 280 281 283 284 283 280 279 276 277 284 287 284 283 276 271 269 260 255 251 246 247 252 260 263 264 266 271 273 276 280 281 284 284 285 283 286 286
268 272 276 278 280 276 280 285 285 282 279 276 274 278 282 284 286 286 283 277 271 268 262 258 255 250 248 253 260 261 265 267 271 272 275 278 281 281 283 281 282 285 283
269 272 274 276 275 278 285 287 286 278 274 271 276 279 283 283 283 284 282 280 274 269 266 262 257 255 256 258 260 262 265 267 271 273 276 276 279 281 284 286 285 285 281
267 268 269 272 274 281 285 285 278 275 270 277 280 282 285 284 283 284 282 281 278 273 271 267 261 258 257 259 263 265 268 269 272 273 276 276 277 279 281 283 283 282 282
261 264 271 274 279 280 282 275 273 271 272 280 285 290 289 285 283 285 283 283 282 278 273 271 269 264 262 264 267 268 270 272 274 275 275 277 279 281 281 280 280 281 279
259 266 273 280 279 278 268 272 271 271 282 285 286 289 289 288 289 288 287 285 282 279 278 275 273 273 272 270 273 275 275 274 275 275 277 278 278 279 279 276 276 276 276
262 267 270 280 276 268 273 274 274 278 284 284 286 292 294 294 296 297 293 291 288 285 284 281 279 278 277 275 274 274 275 276 277 278 278 279 279 280 278 278 279 279 279
264 268 267 279 269 272 273 280 282 283 285 288 291 296 294 295 295 296 297 296 294 290 287 285 283 282 282 281 279 278 277 280 280 280 280 280 279 279 279 280 280 281 281
261 260 263 281 276 273 280 285 283 283 289 294 296 295 296 293 293 293 294 295 295 293 290 288 287 286 285 285 284 281 280 280 280 282 283 284 285 285 284 284 284 284 283
258 263 270 271 280 285 289 294 293 286 287 290 292 293 294 295 293 293 293 292 291 290 289 288 287 287 286 286 286 287 286 283 280 278 281 282 283 284 284 284 283 282 281
258 263 269 272 278 278 283 293 296 296 297 296 295 294 295 296 295 294 294 294 293 292 291 289 288 288 289 288 286 285 286 285 284 283 280 279 281 283 281 282 281 281 281
263 265 269 277 282 291 298 301 305 305 304 303 302 301 299 299 298 298 296 296 295 295 294 294 293 293 293 291 290 289 287 286 284 285 285 284 282 282 283 283 281 281 281
Height
10895 10895 10896 10896 10896 10897 10896 10896 10895 10895 10895 10894 10893 10892 10891 10890 10888 10886 10884 10882 10880 10878 10876 10874 10871 10869 10867 10864 10863 10863 10862 10860 10861 10860 10859 10858 10857 10856 10856 10855 10853 10852 10852
10890 10891 10891 10891 10891 10890 10891 10891 10890 10890 10889 10887 10886 10885 10883 10881 10880 10878 10876 10874 10871 10869 10865 10862 10860 10858 10857 10855 10855 10854 10853 10852 10851 10851 10850 10849 10849 10847 10847 10845 10843 10842 10841
10884 10885 10886 10886 10885 10884 10884 10884 10883 10883 10882 10881 10879 10878 10876 10874 10871 10869 10867 10864 10862 10859 10855 10851 10849 10847 10847 10846 10847 10847 10845 10844 10844 10844 10843 10842 10840 10839 10839 10836 10835 10833 10832
10878 10880 10879 10879 10878 10877 10877 10876 10876 10875 10874 10873 10871 10870 10868 10865 10862 10860 10857 10854 10851 10848 10845 10841 10838 10836 10837 10839 10840 10839 10838 10838 10837 10837 10836 10834 10832 10831 10830 10829 10827 10825 10824
10872 10872 10872 10872 10871 10870 10869 10868 10867 10867 10865 10864 10862 10860 10857 10855 10852 10849 10846 10843 10840 10836 10833 10830 10827 10827 10828 10830 10831 10831 10831 10830 10830 10829 10829 10827 10826 10823 10822 10820 10818 10817 10816
10864 10864 10864 10863 10862 10862 10861 10860 10859 10857 10856 10854 10852 10850 10846 10844 10840 10837 10834 10831 10828 10824 10821 10818 10816 10817 10818 10821 10822 10822 10823 10823 10823 10822 10822 10819 10818 10815 10814 10811 10810 10809 10808
10856 10856 10855 10855 10854 10854 10853 10851 10850 10847 10846 10844 10840 10837 10834 10832 10828 10825 10822 10819 10816 10813 10809 10807 10806 10807 10809 10811 10814 10817 10817 10816 10816 10814 10813 10811 10809 10808 10804 10803 10802 10801 10799
10849 10846 10847 10847 10846 10846 10844 10842 10840 10837 10835 10831 10828 10825 10821 10819 10815 10813 10810 10808 10805 10802 10799 10796 10796 10798 10802 10806 10809 10811 10811 10810 10807 10805 10803 10802 10800 10798 10795 10794 10793 10791 10790
10840 10839 10840 10840 10839 10838 10835 10833 10830 10826 10824 10820 10816 10812 10809 10806 10803 10801 10800 10798 10795 10792 10789 10788 10789 10793 10797 10801 10803 10802 10801 10799 10798 10796 10795 10793 10791 10789 10786 10784 10783 10781 10780
10832 10832 10832 10832 10831 10828 10826 10823 10819 10815 10811 10808 10804 10800 10796 10794 10793 10792 10791 10789 10786 10784 10782 10783 10785 10787 10788 10789 10789 10790 10791 10791 10789 10787 10785 10783 10782 10780 10777 10775 10773 10771 10769
10823 10823 10824 10823 10821 10819 10816 10813 10809 10805 10800 10796 10792 10788 10786 10785 10784 10783 10781 10779 10777 10775 10774 10774 10774 10776 10778 10780 10782 10783 10783 10782 10780 10777 10775 10774 10773 10772 10769 10766 10764 10761 10759
10815 10815 10815 10814 10812 10808 10806 10802 10798 10795 10789 10786 10781 10779 10777 10776 10775 10773 10771 10769 10766 10765 10764 10765 10766 10768 10770 10772 10773 10774 10773 10771 10769 10768 10765 10764 10763 10761 10759 10756 10754 10751 10748
10807 10806 10805 10804 10801 10799 10796 10791 10787 10784 10781 10777 10773 10771 10770 10769 10767 10764 10762 10760 10759 10758 10757 10757 10758 10759 10761 10763 10763 10764 10762 10761 10760 10757 10754 10754 10752 10751 10748 10745 10743 10740 10738
10797 10796 10795 10793 10791 10788 10785 10781 10777 10775 10772 10769 10766 10765 10763 10761 10759 10757 10754 10752 10750 10749 10749 10750 10750 10752 10753 10754 10755 10754 10753 10750 10747 10746 10743 10742 10741 10739 10737 10734 10731 10729 10727
10787 10786 10785 10783 10780 10777 10774 10771 10768 10766 10763 10761 10759 10758 10756 10754 10752 10749 10746 10744 10742 10740 10739 10740 10741 10742 10743 10744 10744 10742 10740 10738 10736 10736 10734 10731 10728 10725 10722 10720 10718 10716 10714
10777 10776 10774 10772 10770 10768 10765 10761 10759 10756 10754 10753 10752 10750 10748 10745 10743 10740 10738 10735 10733 10732 10731 10731 10732 10732 10732 10733 10731 10730 10728 10726 10724 10723 10722 10718 10714 10710 10707 10704 10703 10701 10698
10766 10767 10764 10763 10761 10759 10756 10754 10750 10747 10747 10746 10745 10742 10739 10736 10734 10731 10729 10727 10725 10724 10723 10722 10722 10722 10722 10722 10720 10718 10714 10713 10710 10709 10708 10705 10702 10696 10693 10690 10686 10683 10679
10756 10756 10755 10754 10753 10751 10747 10746 10743 10742 10740 10740 10737 10734 10731 10728 10726 10724 10721 10720 10717 10715 10714 10713 10711 10710 10709 10709 10707 10705 10701 10698 10695 10694 10694 10690 10686 10683 10679 10675 10670 10666 10662
10747 10747 10747 10747 10745 10743 10740 10738 10737 10735 10734 10732 10729 10726 10724 10721 10718 10715 10713 10711 10710 10707 10705 10702 10700 10698 10697 10696 10694 10691 10687 10685 10682 10681 10677 10675 10669 10666 10662 10657 10653 10649 10644
10738 10739 10740 10739 10736 10734 10732 10731 10730 10728 10726 10724 10721 10719 10716 10712 10710 10707 10704 10702 10700 10698 10695 10693 10690 10687 10685 10684 10681 10677 10674 10670 10668 10665 10662 10657 10653 10649 10643 10639 10635 10630 10626
10731 10732 10733 10731 10727 10726 10726 10724 10722 10721 10719 10717 10714 10711 10708 10704 10701 10699 10696 10693 10690 10688 10685 10682 10678 10675 10672 10671 10669 10665 10661 10655 10652 10647 10644 10639 10635 10629 10623 10618 10613 10608 10603
10724 10725 10725 10723 10721 10721 10719 10717 10715 10714 10712 10709 10706 10703 10699 10696 10693 10690 10687 10683 10680 10676 10673 10670 10667 10663 10658 10655 10653 10651 10648 10639 10635 10630 10626 10620 10615 10610 10603 10596 10590 10583 10577
10717 10717 10717 10716 10714 10714 10712 10709 10707 10706 10704 10701 10698 10695 10692 10688 10685 10681 10677 10673 10670 10666 10662 10658 10654 10651 10645 10639 10635 10634 10632 10629 10624 10613 10606 10599 10593 10587 10578 10570 10563 10556 10548
10710 10710 10710 10709 10708 10706 10704 10702 10700 10698 10695 10693 10690 10686 10683 10679 10675 10671 10666 10662 10658 10653 10649 10644 10640 10634 10630 10624 10617 10611 10607 10606 10604 10607 10594 10582 10573 10565 10555 10546 10536 10528 10519
10703 10703 10703 10703 10701 10699 10697 10695 10692 10690 10687 10684 10681 10677 10673 10668 10663 10660 10654 10650 10645 10640 10634 10628 10622 10617 10612 10606 10599 10592 10585 10577 10568 10567 10575 10562 10553 10540 10531 10520 10509 10500 10488
10696 10696 10696 10695 10693 10691 10689 10686 10683 10681 10678 10674 10671 10667 10663 10658 10652 10647 10643 10637 10630 10624 10618 10611 10605 10597 10590 10582 10574 10567 10560 10551 10544 10536 10533 10531 10526 10516 10504 10494 10480 10470 10454